Regional Weather Roundup
Issued by NWS Grand Forks, ND

Home | Current Version | Previous Version | Graphics & Text | Print | Product List | Glossary On
Versions: 1 2 3 4 5 6 7 8 9 10 11 12 13 14 15 16 17 18 19 20 21 22 23 24 25 26 27 28 29 30 31 32 33 34 35 36 37 38 39 40 41 42 43 44 45 46 47 48 49 50
000
ASUS43 KFGF 281931
RWRFGF
PRAIRIE TO PINES  WEATHER ROUNDUP
NATIONAL WEATHER SERVICE EASTERN NORTH DAKOTA/GRAND FORKS ND
200 PM CDT FRI AUG 28 2015

 **SATELLITE DATA USED TO AUGMENT SKY COVER AT AUTOMATED STATIONS**
 *****  WEATHER ACROSS EASTERN NORTH DAKOTA  *****

CITY           SKY/WX    TMP DP  RH WIND       PRES   REMARKS
GRAND FORKS    MOSUNNY   83  67  58 S24G31    29.81F
GRAND FRKS AFB SUNNY     83  67  56 SW18G28   29.81F
GRAND FRKS NWS   N/A     81 N/A N/A S16         N/A
DEVILS LAKE    SUNNY     81  63  54 SW9       29.83F
FARGO          SUNNY     80  66  62 S13       29.91F
WAHPETON ARPT  PTCLDY    77  63  61 S14       29.94F
$$

 ***** WEATHER ACROSS CENTRAL AND WESTERN NORTH DAKOTA  *****

CITY           SKY/WX    TMP DP  RH WIND       PRES   REMARKS
BISMARCK       SUNNY     85  66  53 S9        29.89F
MINOT          SUNNY     84  59  42 NW7       29.86F
JAMESTOWN      SUNNY     81  66  60 S15       29.89F
MINOT AFB      SUNNY     85  60  42 NW8       29.85F
GARRISON         N/A     82  30  15 SW8       29.88F
WILLISTON      SUNNY     83  61  47 SW9       29.89F
DICKINSON      SUNNY     88  53  30 NW5       29.92F
HETTINGER      SUNNY     86  52  30 W13       29.96F
$$

 *****  OTHER AIRPORT OBSERVATIONS IN OUR AREA  *****

CITY           SKY/WX    TMP DP  RH WIND       PRES   REMARKS
WALHALLA       FAIR      82  66  57 MISG      29.80S
GRAFTON AIRPOR FAIR      84  68  58 SW18G25   29.80S
VALLEY CITY AR FAIR      77  72  83 S14       29.91S
CANDO          FAIR      82  64  54 W10       29.84S
CAVALIER APRT  FAIR      81  68  65 SW8       29.79S
GWINNER        FAIR      79  70  73 S12       29.94S
SHEYENNE NWR     N/A     79  68  68 S7        29.95S
ROLLA            N/A     81  64  57 W6        29.86S
 ***** THE ABOVE OBSERVATIONS ARE NON NWS ARE NOT QUALITY
       CONTROLLED AND MAY MIS-REPORT RAIN FOR SNOW...
$$

  *****  WEATHER ACROSS NORTHERN MINNESOTA  *****

CITY           SKY/WX    TMP DP  RH WIND       PRES   REMARKS
FLAG ISLAND    MOSUNNY   70  64  83 S9        29.83S
WARROAD        PTSUNNY   75  72  88 E3        29.84F
ROSEAU         PTSUNNY   81  70  69 SW13      29.83S
HALLOCK        MOSUNNY   81  68  65 SW10G18   29.80S
THF RVR FALLS  PTSUNNY  N/A N/A N/A S20G31    29.83F
BAUDETTE       CLOUDY    75  67  76 VRB6      29.86R
WASKISH        CLOUDY    79  70  73 SW8       29.87S
CROOKSTON      PTSUNNY   81  66  61 SW25      29.84F
STEPHEN NDAWN    N/A     82  70  65 SW14        N/A
GREENBUSH NDAW   N/A     81  64  57 SW12        N/A
$$
  *****  WEATHER ACROSS CENTRAL AND WEST MINNESOTA  *****

CITY           SKY/WX    TMP DP  RH WIND       PRES   REMARKS
FOSSTON        MOSUNNY   79  64  61 S21G26    29.89F
BEMIDJI        MOSUNNY   79  66  64 S13G18    29.91F
PARK RAPIDS    MOSUNNY   81  64  56 S9        29.96F
ELBOW LAKE     FAIR      77  66  70 S10       29.97S
WADENA         MOSUNNY   79  63  57 SW10G16   29.97F
DETROIT LAKES  SUNNY     75  64  69 SW14      29.96F
MOORHEAD       MOSUNNY   79  66  65 S12G17    29.92S
FERGUS FALLS   PTSUNNY   75  66  73 S7        29.94F
MORRIS MN      MOSUNNY   77  64  65 SE9G16    29.97R
STAPLES        SUNNY     79  63  57 SW8       29.98S
$$
  *****  WEATHER ELSEWHERE ACROSS MINNESOTA  *****

CITY           SKY/WX    TMP DP  RH WIND       PRES   REMARKS
DULUTH         MOSUNNY   74  64  71 SW13      29.98F
INTRNTL FALLS  CLOUDY    75  69  81 S6        29.85F
ELY            CLOUDY    70  64  83 W5        29.96S
CLOQUET        MOSUNNY   79  64  61 SW10      29.98F
WHEATON        SUNNY     75  64  69 S7        29.97S
BRAINERD       SUNNY     78  63  59 SW10      29.99S
HIBBING        MOSUNNY   77  66  68 SW9       29.96F
ALEXANDRIA     SUNNY     78  65  63 S10       29.99S
SAINT CLOUD    MOSUNNY   78  62  57 S14       29.98F
MINNEAPOLIS    PTSUNNY   74  64  71 SE10      30.00F
$$

  *****  WEATHER ACROSS SOUTH DAKOTA  *****

CITY           SKY/WX    TMP DP  RH WIND       PRES   REMARKS
SIOUX FALLS    CLOUDY    70  62  76 E16       29.94S
BROOKINGS      CLOUDY    70  61  73 SE10      29.99S
WATERTOWN      SUNNY     76  63  64 S6        29.97F
HURON          MOSUNNY   78  64  61 CALM      29.95F
SISSETON         N/A     79  66  64 S10       29.94F
ABERDEEN       CLOUDY    74  67  78 S8        29.96F
MITCHELL       CLOUDY    77  66  68 NE8       29.97S
PIERRE         MOSUNNY   77  66  68 S3        29.97S
MOBRIDGE       SUNNY     80  71  74 SE12      29.93F
RAPID CITY     SUNNY     84  55  36 N10       30.04F
$$

  *****  SOME WEATHER IN NEARBY STATES *****

CITY           SKY/WX    TMP DP  RH WIND       PRES   REMARKS
GLASGOW MT     MOSUNNY   86  42  21 W15       29.92F HAZE
GREAT FALLS MT PTSUNNY   87  29  12 SW16      30.02F
CHEYENNE WY    MOSUNNY   77  43  29 NW7       30.28F
SCOTTSBLUFF NE SUNNY     86  51  29 NW13      30.11F
OMAHA NE       CLOUDY    78  70  76 SW8       29.82F
DES MOINES IA  CLOUDY    71  65  81 S14       29.87F
DAVENPORT IA   CLOUDY    67  62  84 SE9       30.07F
CHICAGO IL     CLOUDY    71  59  65 SW6       30.12F
EAU CLAIRE WI  LGT RAIN  66  63  90 SE14      30.03S
LA CROSSE WI   LGT RAIN  64  61  90 E12       30.02F FOG
$$

  *****  SOME NATIONAL WEATHER *****

CITY           SKY/WX    TMP DP  RH WIND       PRES   REMARKS
LA GUARDIA NY  MOSUNNY   79  49  34 NW5       30.14F
RALEIGH NC     PTSUNNY   85  57  38 NE6       30.17F
ATLANTA GA     MOSUNNY   81  68  64 E10       30.14F
NEW ORLEANS LA MOSUNNY   89  64  43 NE10      29.98F HX  90
OKLAHOMA CITY  LGT RAIN  77  67  71 S14       29.98S
ALBUQUERQUE NM PTSUNNY   84  51  31 NW6       30.21F
SALT LAKE CITY MOSUNNY   88  43  20 SE8       30.16F
LOS ANGELES CA MOSUNNY   85  67  54 SW8       29.89F
BOISE ID       MOSUNNY   88  40  18 N9        30.02F
SEATTLE WA     PTSUNNY   68  55  63 SW3       29.97S
$$

*** WEATHER ACROSS MANITOBA...SASKATCHEWAN AND ONTARIO ***
                ***ONTARIO***

CITY           SKY/WX    TMP DP  RH WIND       PRES   REMARKS
GERALDTON      CLOUDY    68  61  77 S9        29.90F
THUNDER BAY    PTSUNNY   68  55  64 E8        29.91F
SIOUX LOOKOUT  CLOUDY    70  66  88 SW8       29.86
TORONTO        MOSUNNY   72  54  53 SE6       30.17F
BIG TROUT LK   MOSUNNY   64  55  72 VRB2      29.82F
PICKLE LAKE    PTSUNNY   72  57  60 S2        29.83S
DRYDEN         CLOUDY    70  66  88 S10       29.85F
KENORA         CLOUDY    72  66  83 SW9       29.85S
$$
                *** MANITOBA***

CITY           SKY/WX    TMP DP  RH WIND       PRES   REMARKS
BRANDON        PTSUNNY   81  68  65 VRB2      29.83F
DAUPHIN        SUNNY     81  61  50 N5        29.81F
ISLAND LAKE    PTSUNNY   66  59  77 VRB2      29.79F
PILOT MOUND      N/A     77  64  65 W6          N/A
THE PAS        MOSUNNY   77  57  50 NW10      29.75F
THOMPSON       MOSUNNY   73  57  56 SW8       29.70F
WINNIPEG       MOSUNNY   79  66  65 CALM      29.80F
LYNN LAKE      SUNNY     77  52  41 MISG      29.63F
CHURCHILL      PTSUNNY   68  50  52 S10       29.70
GILLAM         MOSUNNY   70  50  49 S5        29.75
$$
                ***SASKATCHEWAN***

CITY           SKY/WX    TMP DP  RH WIND       PRES   REMARKS
ESTEVAN        CLOUDY    82  57  42 W3        29.87F SMOKE
KINDERSLEY     PTSUNNY   79  54  41 S13       29.84F SMOKE
LLOYDMINSTER   PTSUNNY   77  59  53 S14       29.80F
PRINCE ALBERT  PTSUNNY   79  59  50 SW10      29.81F
REGINA         PTSUNNY   77  63  61 E6        29.87F
YORKTON        SUNNY     79  52  38 VRB3      29.86S
N. BATTLEFORD  SUNNY     79  52  38 S14G20    29.84F
LA RONGE       PTSUNNY   81  52  36 SW10      29.72F
SASKATOON      PTSUNNY   77  57  50 SE8       29.87F
SWIFT CURRENT  SUNNY     77  54  44 W16       29.89S HAZE
$$
NOTE: THESE ARE AUTOMATED STATIONS WITH LIMITED QUALITY CONTROL
      "FAIR" INDICATES FEW OR NO CLOUDS BELOW 12,000 FEET WITH NO
      SIGNIFICANT WEATHER AND/OR OBSTRUCTIONS TO VISIBILITY.
      SKY/WX - SKY CONDITION AND SIGNIFICANT WEATHER.
      TMP - AIR TEMPERATURE.    DP   - DEWPOINT TEMPERATURE.
      RH  - RELATIVE HUMIDITY.  PRES - PRESSURE.
      HX  - HEAT INDEX.         WCI  - WIND CHILL INDEX.
$


USA.gov is the U.S. government's official web portal to all federal, state and local government web resources and services.